Погода в Кигали

Руанда     1°56′58″S   30°05′30″E
темп.,
°C
ветер,
м/с
пор.,
м/с
влажн.,
%
обл.,
%
осадки,
мм/ч
давл.,
гПа
погр.,
м
20 января, ср
ср2023:00+17св1192100 0.6 101423
02:00+16зюз009693 1.4 101423
05:00+15сз009760 0.1 101423
08:00+19зюз118541 0.1 1015250
11:00+22всв117598 2.1 1013304
14:00+27св254799 3.6 10112092
17:00+23зюз1373100 1.4 1010789
20:00+17з119399 3.9 101323
21 января, чт
чт2123:00+16зсз1194100 1.6 101423
02:00+16зсз119595 1.7 101423
05:00+15зсз1196100 0.0 101423
08:00+19ссв018586 0.0 1015216
11:00+22в146663 0.6 1012869
14:00+26ссв254781 1.6 10101841
17:00+24св2656100 0.1 1009603
20:00+18зсз1172100 0.1 101423
22 января, пт
пт2223:00+17зсз1186100 0.0 101523
02:00+16з1188100 0.1 101323
05:00+15ссз1190100 0.0 101325
08:00+18зюз1184100 0.3 101561
11:00+20ююв1284100 0.7 1013210
14:00+25ююз125989 1.2 1010858
17:00+25св25558 0.3 10091425
20:00+18с117754 0.3 101223
23 января, сб
сб2323:00+16з118795 0.0 101423
02:00+16зсз118998 0.0 101323
05:00+15ссз1190100 0.1 101423
08:00+18ссв018298 0.3 101667
11:00+24в135899 0.3 1014935
14:00+24вюв245695 1.1 10111342
17:00+19ююв2485100 1.1 1011424
20:00+17зсз1195100 1.1 101324
24 января, вс
вс2423:00+16зсз1196100 0.1 101523
02:00+16зсз0195100 0.1 101323
05:00+15ссз1195100 0.1 101423
08:00+18ююв1085100 0.1 1015214
11:00+22вюв1269100 0.7 1013559
14:00+24в1461100 2.3 10101086
17:00+21в128488 3.4 1010163
20:00+18вюв118994 6.4 101323